Miscellaneous Local Product
Issued by NWS Hastings, NE

Home | Current Version | Previous Version | Text Only | Print | Product List | Glossary On
Versions: 1 2 3 4 5 6 7 8 9 10 11 12 13 14 15 16 17 18 19 20 21 22 23 24 25 26 27 28 29 30 31 32 33 34 35 36 37 38 39 40 41 42 43 44 45 46 47 48 49 50
000
AXUS43 KGID 290202
MISGRI

GID CWA HOURLY WEATHER ROUNDUP
NATIONAL WEATHER SERVICE HASTINGS NE
900 PM CDT THU AUG 28 2014

NOTE: "FAIR" INDICATES FEW OR NO CLOUDS BELOW 12,000 FEET WITH NO
SIGNIFICANT WEATHER AND/OR OBSTRUCTIONS TO VISIBILITY.

...SOUTH CENTRAL NEBRASKA...

CITY           SKY/WX    TMP DP  RH WIND       PRES   REMARKS
GRAND ISLAND   MOCLDY    75  70  84 S6        29.84R
HASTINGS       MOCLDY    76  67  73 S6        29.84R
KEARNEY        PTCLDY    72  66  83 SE6       29.86R
ORD            CLOUDY    69  63  81 NW14G21   29.85R
YORK           CLOUDY    72 N/A N/A S6        29.84R
AURORA         CLOUDY    75  70  85 S8        29.84R
LEXINGTON      PTCLDY    74  69  82 E3        29.86R
HOLDREGE       MOCLDY    73  66  78 S3        29.86R
HEBRON         CLOUDY    73  65  78 SW3       29.84R

...NEBRASKA PANHANDLE...

CITY           SKY/WX    TMP DP  RH WIND       PRES   REMARKS
CHADRON        MOCLDY    63  58  83 S6        29.95S
ALLIANCE       MOCLDY    62  55  77 W8        29.97R
SCOTTSBLUFF    MOCLDY    61  53  75 W6        30.00F
SIDNEY         CLOUDY    62  53  72 W8        30.03F

...WESTERN AND NORTH CENTRAL NEBRASKA...

CITY           SKY/WX    TMP DP  RH WIND       PRES   REMARKS
VALENTINE      CLOUDY    62  59  90 SW10      29.88S
AINSWORTH      CLOUDY    64  58  83 NW10G16   29.88R
ONEILL         CLOUDY    72  69  91 W10G16    29.87R
BROKEN BOW     PTCLDY    66  61  84 N8        29.87R
IMPERIAL       MOCLDY    66  56  70 NW6       29.97R
NORTH PLATTE   PTCLDY    65  59  81 NW8       29.90R
MCCOOK         MOCLDY    72  62  71 W12       29.90R

...EASTERN NEBRASKA...

CITY           SKY/WX    TMP DP  RH WIND       PRES   REMARKS
NORFOLK        CLOUDY    74  70  87 S7        29.81S
SO SIOUX CITY  MOCLDY    75  72  90 SE6       29.81S
TEKAMAH        CLOUDY    75  71  87 SE9       29.83R
COLUMBUS       CLOUDY    73  70  88 S6        29.83R
ALBION         CLOUDY    74  70  87 SE3       29.82S
OMAHA EPPLEY   MOCLDY    77  72  84 SE7       29.85R
OFFUTT AFB     PTCLDY    76  76 100 E5        29.84R
MILLARD        MOCLDY    78  73  86 SE5       29.84R
LINCOLN        MOCLDY    74  68  81 S7        29.83F
NEBRASKA CITY  PTCLDY    73  73 100 CALM      29.86R
BEATRICE       MOCLDY    74  70  88 SE5       29.84S
FALLS CITY     MOCLDY    77  74  90 CALM      29.84R

...NORTHERN KANSAS...

CITY           SKY/WX    TMP DP  RH WIND       PRES   REMARKS
GOODLAND       MOCLDY    67  60  78 NW8       30.01R
HILL CITY      MOCLDY    75  67  76 E3        29.88R
NORTON         CLEAR     73  61  64 CALM      29.87R
SMITH CENTER   CLEAR     70  63  78 S9        29.87R
BELOIT         PTCLDY    73  61  64 W5        29.85R
HAYS           CLOUDY    75  64  69 SE10      29.87R
RUSSELL        CLOUDY    71  66  84 S10       29.84F
CONCORDIA      CLOUDY    74  69  85 SW9       29.85S
SALINA         CLOUDY    78  66  66 S12       29.84R
TOPEKA         MOCLDY    82  68  62 S3        29.84R



USA.gov is the U.S. government's official web portal to all federal, state and local government web resources and services.